EHI
36 37 39 40 37 38 43 47 46 43 40 41 35 25 16 9 6 5 4 4 3 1 1 0 0 0 0 0 0 0 0 0 0 0 0 0 0 0 0 0 0 0 0
34 36 36 36 36 36 40 45 48 47 46 46 45 36 23 14 9 6 5 6 5 3 2 1 0 0 0 0 0 0 0 0 0 0 0 0 0 0 0 0 0 0 0
25 25 25 27 31 31 33 38 42 44 45 50 57 51 37 26 17 9 7 6 5 5 4 2 0 0 0 0 0 0 0 0 0 0 0 0 0 0 0 0 0 0 0
11 11 12 16 21 23 23 26 31 35 41 50 57 54 44 34 22 12 7 5 4 5 5 4 1 0 0 0 0 0 0 0 0 0 0 0 0 0 0 0 0 0 0
4 3 3 5 10 14 16 19 23 29 36 44 46 43 36 29 19 11 6 3 3 4 4 3 2 0 0 0 0 0 0 0 0 0 0 0 0 0 0 0 0 0 0
1 1 0 1 3 6 10 14 18 22 27 31 35 32 26 18 12 8 4 1 1 2 2 2 1 0 0 0 0 0 0 0 0 0 0 0 0 0 0 0 0 0 0
0 0 0 0 0 2 5 8 12 14 16 19 23 25 20 11 7 5 3 1 0 1 1 1 0 0 0 0 0 0 0 0 0 0 0 0 0 0 0 0 0 0 0
0 0 0 0 0 0 1 3 5 7 8 9 12 15 13 6 2 2 1 0 0 0 0 0 0 0 0 0 0 0 0 0 0 0 0 0 0 0 0 0 0 0 0
0 0 0 0 0 0 0 0 1 2 3 3 4 7 6 3 1 0 0 0 0 0 0 0 0 0 0 0 0 0 0 0 0 0 0 0 0 0 0 0 0 0 0
0 0 0 0 0 0 0 0 0 0 1 1 1 2 1 0 0 0 0 0 0 0 0 0 0 0 0 0 0 0 0 0 0 0 0 0 0 0 0 0 0 0 0
0 0 0 0 0 0 0 0 0 0 1 0 0 0 0 0 0 0 0 0 0 0 0 0 0 0 0 0 0 0 0 0 0 0 0 0 0 0 0 0 0 0 0
0 0 0 0 0 0 0 0 0 0 0 0 0 0 0 0 0 0 0 0 0 0 0 0 0 0 0 0 0 0 0 0 0 0 0 0 0 0 0 0 0 0 0
0 0 0 0 0 0 0 0 0 0 0 0 0 0 0 0 0 0 0 0 0 0 0 0 0 0 0 0 0 0 0 0 0 0 0 0 0 0 0 0 0 0 0
0 0 0 0 0 0 0 0 0 0 0 0 0 0 0 0 0 0 0 0 0 0 0 0 0 0 0 0 0 0 0 0 0 0 0 0 0 0 0 0 0 0 0
0 0 0 0 0 0 0 0 0 0 0 0 0 0 0 0 0 0 0 0 0 0 0 0 0 0 0 0 0 0 0 0 0 0 0 0 0 0 0 0 0 0 0
0 0 0 0 0 0 0 0 0 0 0 0 0 0 0 0 0 0 0 0 0 0 0 0 0 0 0 0 0 0 0 0 0 0 0 0 0 0 0 0 0 0 0
0 0 0 0 0 0 0 0 0 0 0 0 0 0 0 0 0 0 0 0 0 0 0 0 0 0 0 0 0 0 0 0 0 0 0 0 0 0 0 0 0 0 0
0 0 0 0 0 0 0 0 0 0 0 0 0 0 0 0 0 0 0 0 0 0 0 0 0 0 0 0 0 0 0 0 0 0 0 0 0 0 0 0 0 0 0
0 0 0 0 0 0 0 0 0 0 0 0 0 0 0 0 0 0 0 0 0 0 0 0 0 0 0 0 0 0 0 0 0 0 0 0 0 0 0 0 0 0 0
0 0 0 0 0 0 0 0 0 0 0 0 0 0 0 0 0 0 0 0 0 0 0 0 0 0 0 0 0 0 0 0 0 0 0 0 0 0 0 0 0 0 0
0 0 0 0 0 0 0 0 0 0 0 0 0 0 0 0 0 0 0 0 0 0 0 0 0 0 0 0 0 0 0 0 0 0 0 0 0 0 0 0 0 0 0
0 0 0 0 0 0 0 0 0 0 0 0 0 0 0 0 0 0 0 0 0 0 0 0 0 0 0 0 0 0 0 0 0 0 0 0 0 0 0 0 0 0 0
0 0 0 0 0 0 0 0 0 0 0 0 0 0 0 0 0 0 0 0 0 0 0 0 0 0 0 0 0 0 0 0 0 0 0 0 0 0 0 0 0 0 0
0 0 0 0 0 0 0 0 0 0 0 0 0 0 0 0 0 0 0 0 0 0 0 0 0 0 0 0 0 0 0 0 0 0 0 0 0 0 0 0 0 0 0
0 0 0 0 0 0 0 0 0 0 0 0 0 0 0 0 0 0 0 0 0 0 0 0 0 0 0 0 0 0 0 0 0 0 0 0 0 0 0 0 0 0 0
0 0 0 0 0 0 0 0 0 0 0 0 0 0 0 0 0 0 0 0 0 0 0 0 0 0 0 0 0 0 0 0 0 0 0 0 0 0 0 0 0 0 0
Wind_Speed
0 2 1 3 4 5 7 8 8 8 6 5 5 5 4 4 4 5 7 7 7 8 7 6 5 5 5 5 4 3 3 3 2 2 4 5 5 6 5 4 4 5 5
3 2 2 1 2 3 4 5 7 7 6 6 5 3 3 3 3 4 5 6 7 7 6 6 5 5 4 4 3 3 2 2 1 1 2 4 5 3 3 3 3 4 4
3 2 2 1 1 2 3 4 5 6 6 6 3 1 1 1 2 3 3 4 5 5 5 5 4 4 4 3 4 4 4 2 2 3 2 2 3 4 4 3 3 3 3
5 3 3 2 2 2 2 3 4 6 6 6 6 6 5 5 5 4 3 3 4 5 4 4 5 4 4 4 3 3 3 3 2 2 3 4 4 3 5 3 3 3 4
5 5 5 4 3 2 2 3 4 5 5 5 6 6 6 5 3 2 3 3 3 3 4 4 4 4 3 3 3 2 3 3 3 2 2 3 3 5 5 6 5 4 3
6 6 5 4 4 3 2 2 3 4 4 4 4 6 6 6 5 5 4 3 2 2 3 3 3 3 3 3 2 2 2 2 3 3 3 3 3 3 4 5 5 6 4
6 7 7 7 6 6 4 3 3 4 4 4 5 6 7 8 8 7 6 4 3 2 3 3 3 2 2 2 1 1 1 1 2 3 3 3 4 3 3 4 5 5 4
6 7 7 7 7 7 6 5 5 5 4 4 4 5 5 5 4 5 4 4 3 3 4 4 4 3 3 2 2 1 0 0 1 2 2 2 2 2 2 2 3 5 4
6 6 6 6 7 7 7 6 5 4 4 3 1 1 3 4 3 4 4 4 4 4 5 5 4 4 3 3 3 2 1 1 1 1 1 1 2 2 2 2 2 3 4
5 5 5 5 6 6 6 6 5 4 2 2 1 2 2 3 5 6 6 6 5 5 6 5 5 5 4 4 3 2 2 2 2 2 2 2 2 3 3 2 2 3 4
6 5 4 4 4 5 5 5 5 4 3 1 2 3 4 6 7 7 7 6 6 6 6 5 5 5 5 4 4 3 3 3 4 4 4 4 3 3 3 3 3 2 3
5 4 4 4 4 5 5 5 5 4 3 3 3 4 5 6 7 7 6 6 6 6 6 6 6 5 5 4 4 4 4 4 4 4 5 5 4 5 4 3 4 3 3
4 3 2 3 3 4 4 4 4 3 3 4 4 5 5 6 6 6 6 6 7 6 6 6 6 5 4 4 4 4 5 4 4 4 5 5 6 5 4 5 4 4 4
4 3 3 3 3 3 3 3 4 3 2 3 4 4 4 5 5 5 5 6 6 6 6 6 5 5 5 5 4 5 5 5 5 5 5 5 5 5 6 5 5 5 5
5 5 4 3 3 2 2 2 3 3 2 3 4 4 4 4 5 5 5 5 6 6 6 6 5 4 4 4 4 4 5 5 6 6 6 6 8 8 5 4 5 5 4
7 6 5 4 3 3 2 2 2 2 2 3 3 3 4 5 5 5 5 6 6 5 6 6 5 5 4 6 6 5 5 5 6 6 6 5 8 10 10 9 7 5 4
7 7 6 5 5 3 2 1 0 1 2 3 3 4 4 5 5 5 5 6 5 5 6 5 6 6 6 8 7 8 5 6 5 5 6 6 7 9 8 9 8 7 7
7 7 6 5 4 3 2 1 1 1 2 3 3 4 5 5 5 5 5 5 4 5 5 5 5 6 7 9 8 8 6 6 5 5 5 5 7 9 9 7 7 7 7
7 7 6 5 4 3 3 2 1 1 2 3 3 4 5 5 5 5 5 4 5 5 5 5 5 6 7 9 8 6 4 5 5 4 5 6 7 11 11 7 7 8 8
6 6 5 4 4 4 3 3 2 2 2 3 3 4 4 5 5 5 4 4 5 5 6 6 5 6 6 8 8 6 4 4 3 4 5 8 9 10 10 7 7 8 7
7 6 6 5 5 4 4 4 3 4 4 3 4 4 5 5 5 4 4 5 6 6 6 6 5 6 6 8 9 7 4 3 3 4 4 5 9 9 9 7 6 6 6
7 7 6 6 5 5 5 5 5 4 3 4 5 5 5 5 5 6 5 5 6 6 5 5 5 4 4 5 7 9 7 4 3 2 2 4 8 8 9 7 8 9 7
8 7 7 6 5 5 6 6 5 4 5 6 6 5 5 4 5 6 6 5 4 4 4 4 4 2 2 3 6 7 7 7 3 2 3 4 7 6 5 8 10 8 6
8 7 7 7 6 6 7 7 5 6 7 7 6 5 5 5 4 4 4 5 5 4 4 4 4 2 2 1 1 2 3 4 3 3 4 5 6 5 5 5 5 5 5
8 8 8 9 9 7 7 6 7 8 7 7 6 5 5 5 5 4 3 4 3 4 5 4 4 4 3 2 3 2 1 1 2 2 2 3 3 4 4 4 4 4 5
9 8 9 9 8 8 8 7 8 9 9 7 7 5 5 5 5 5 3 2 2 5 6 6 6 3 4 5 5 3 1 2 1 2 1 1 2 2 2 3 3 4 4
Wind_Direction
7 54 184 205 204 205 200 198 201 204 191 185 190 201 213 215 219 224 221 215 211 207 203 211 206 202 210 217 213 216 237 249 230 277 299 293 281 278 277 280 288 295 297
33 27 18 342 227 222 213 206 206 204 201 200 190 190 188 203 215 217 211 209 208 206 204 207 206 204 210 218 211 199 217 244 202 212 302 313 319 316 293 291 290 304 312
9 4 351 329 305 249 223 220 215 209 208 200 174 150 146 176 202 219 215 207 200 202 196 200 205 201 203 219 217 204 207 234 235 196 214 261 283 309 299 288 288 303 310
5 350 338 334 302 263 220 211 215 210 208 195 191 191 204 217 220 217 215 209 201 198 195 196 196 195 198 210 217 205 203 208 240 233 220 227 237 268 298 298 287 294 294
350 340 336 325 310 296 258 223 214 216 213 203 203 207 222 226 221 226 215 213 203 193 186 195 188 184 187 198 201 197 201 202 221 228 234 241 240 232 255 288 299 298 274
337 334 332 329 323 320 312 275 233 221 211 202 206 214 226 234 220 220 212 203 181 170 163 173 171 168 173 194 194 198 214 222 233 237 231 234 247 246 245 271 293 299 289
323 327 332 336 333 325 315 297 273 254 228 207 208 213 218 225 219 213 201 188 177 169 161 151 150 148 157 163 159 168 216 239 249 252 247 241 245 247 249 267 282 289 294
306 312 318 326 328 325 319 306 288 278 269 237 220 213 213 222 219 199 178 168 162 148 142 133 125 123 121 117 110 101 22 320 289 284 275 263 265 257 253 263 285 297 292
290 300 310 320 323 324 319 311 299 292 284 268 244 223 212 190 171 138 125 125 119 115 111 108 103 93 90 89 91 77 34 2 342 325 325 308 314 322 301 282 271 283 297
283 294 305 316 319 321 322 327 326 317 313 297 246 152 130 117 111 107 103 100 96 97 101 98 95 90 83 80 81 70 42 50 28 16 20 14 357 353 349 335 317 287 281
274 282 295 303 315 331 337 339 340 349 356 15 87 103 102 102 99 97 97 99 96 96 96 99 95 88 78 71 74 63 51 50 37 30 30 21 9 0 351 345 338 324 302
266 276 296 316 334 342 345 350 350 6 19 46 84 93 95 97 97 99 102 105 102 98 101 101 93 86 76 69 69 62 53 51 43 34 31 15 5 2 353 345 338 324 307
266 277 295 308 319 331 340 348 354 11 39 66 82 89 92 96 102 106 107 106 105 100 98 97 94 87 78 70 63 64 59 54 48 40 33 13 6 359 347 339 336 325 318
251 249 261 278 294 315 337 344 355 13 50 82 91 93 98 106 105 106 106 106 107 105 100 95 93 87 75 66 59 61 58 52 45 38 31 20 9 352 340 338 338 333 330
233 230 235 252 275 302 331 347 355 17 46 83 96 104 108 106 105 100 96 98 99 103 104 97 85 74 68 56 60 61 60 53 44 34 25 19 17 9 358 346 335 337 338
231 226 224 227 240 260 291 339 358 25 84 105 113 116 114 110 107 105 104 100 95 96 95 89 84 66 51 45 64 80 71 62 52 36 16 9 16 3 360 359 359 356 345
229 222 216 215 224 236 241 250 310 61 104 119 123 119 116 111 109 111 106 104 102 101 94 86 80 68 41 45 64 82 84 72 59 44 25 16 6 4 357 352 360 7 5
223 217 212 214 222 224 222 204 163 118 125 127 128 131 128 120 114 109 105 101 99 99 95 88 80 69 43 44 67 85 82 76 63 49 34 19 3 3 354 354 6 6 8
211 209 205 203 206 212 205 171 160 149 145 148 145 142 136 128 122 117 110 102 103 97 93 91 82 72 46 43 65 83 80 72 56 42 35 26 14 360 6 16 10 6 3
206 203 195 188 200 212 183 168 187 187 188 175 159 145 136 133 131 125 113 105 110 107 101 88 76 73 57 44 61 76 82 73 50 31 26 29 22 13 17 24 19 11 351
201 191 181 190 207 196 172 182 199 211 202 163 143 136 136 136 133 123 115 118 114 107 101 94 78 68 60 52 58 64 76 80 62 38 16 8 11 22 27 31 27 360 341
193 182 182 201 205 183 175 191 212 212 170 147 140 138 138 138 134 126 120 120 120 114 111 106 91 69 57 59 65 66 66 74 76 43 5 356 6 24 31 31 18 15 19
192 183 185 196 201 191 184 196 209 179 156 147 145 141 133 125 133 136 135 128 126 127 129 125 118 104 76 62 64 62 59 56 59 16 2 14 21 24 28 23 21 22 24
193 184 180 191 205 202 199 203 183 165 155 154 152 146 139 132 131 136 144 145 148 144 145 146 144 137 121 97 63 47 40 34 31 10 2 20 35 39 23 15 17 19 19
191 182 187 196 205 197 198 194 176 164 161 161 159 154 151 146 143 138 143 156 166 169 163 168 161 156 159 182 161 131 57 10 354 357 23 25 19 20 16 10 8 9 11
189 188 195 200 202 192 195 189 179 172 166 167 168 165 159 156 152 144 120 91 153 179 178 168 162 169 171 160 157 143 72 9 36 85 56 24 4 358 357 357 356 0 4